Overview Statistics Trail Chart Weather Telemetry Raw packets
 

This is the latest recevied weather packets stored in our database for station/object KC9DRE. If no packets are shown the sender has not sent any weather packets the latest 10 day(s).

<< 1 2 3 4 >>
Time Temp. Humidity Pressure Rain* Wind** Luminosity Snow
1777892503 10.56° C 89% 1012 hPa 0 mm - 0 W/m² -
1777892199 10.56° C 89% 1012 hPa 0 mm - 0 W/m² -
1777891896 10.56° C 88% 1011.3 hPa 0 mm - 0 W/m² -
1777891593 10.56° C 86% 1011.1 hPa 0 mm - 0 W/m² -
1777891289 11.11° C 84% 1011.6 hPa 0 mm - 0 W/m² -
1777890983 11.11° C 82% 1011.2 hPa 0 mm - 0 W/m² -
1777890678 11.67° C 80% 1011.3 hPa 0 mm - 0 W/m² -
1777890374 11.67° C 77% 1011.9 hPa 0 mm - 0 W/m² -
1777890070 11.67° C 77% 1011.7 hPa 0 mm - 0 W/m² -
1777889768 11.11° C 78% 1011.7 hPa 0 mm - 0 W/m² -
1777889466 11.11° C 79% 1011.6 hPa 0 mm - 0 W/m² -
1777889163 11.11° C 80% 1011.2 hPa 0 mm - 0 W/m² -
1777888861 10.56° C 83% 1011.3 hPa 0 mm - 0 W/m² -
1777888574 11.11° C 83% 1011.8 hPa 0 mm - 0 W/m² -
1777888253 11.11° C 82% 1012 hPa 0 mm - 0 W/m² -
1777887950 11.11° C 81% 1012.2 hPa 0 mm - 0 W/m² -
1777887647 11.11° C 81% 1012.1 hPa 0 mm - 0 W/m² -
1777887344 11.11° C 81% 1012.4 hPa 0 mm - 0 W/m² -
1777887039 11.11° C 81% 1012.2 hPa 0 mm - 0 W/m² -
1777886735 11.11° C 83% 1012.4 hPa 0 mm - 0 W/m² -
1777886432 10.56° C 84% 1012.3 hPa 0 mm - 0 W/m² -
1777886130 10.56° C 86% 1012.1 hPa 0 mm - 0 W/m² -
1777885827 10.56° C 85% 1012 hPa 0 mm - 0 W/m² -
1777885526 10.56° C 88% 1012 hPa 0 mm - 0 W/m² -
1777885224 10.56° C 85% 1012 hPa 0 mm - 0 W/m² -

* Rain latest hour (hover to see other rain measurements)
** Current wind speed in m/s (hover to see current wind gust speed)